Year,Month,Day,Hour,Minute,Value (Times are PST for temperature in C)
2010,09,23,09,53,11.80
2010,09,23,09,54,11.80
2010,09,23,09,55,11.80
2010,09,23,09,56,11.80
2010,09,23,09,57,11.80
2010,09,23,09,58,11.80
2010,09,23,09,59,11.80
2010,09,23,10,00,11.80
2010,09,23,10,01,11.90
2010,09,23,10,02,11.90
2010,09,23,10,03,11.90
2010,09,23,10,04,11.90
2010,09,23,10,05,11.90
2010,09,23,10,06,11.90
2010,09,23,10,07,11.90
2010,09,23,10,08,11.90
2010,09,23,10,09,11.90
2010,09,23,10,10,11.90
2010,09,23,10,11,12.00
2010,09,23,10,12,11.90
2010,09,23,10,13,11.90
2010,09,23,10,14,11.90
2010,09,23,10,15,12.00
2010,09,23,10,16,12.00
2010,09,23,10,17,12.10
2010,09,23,10,18,12.10
2010,09,23,10,19,12.10
2010,09,23,10,20,12.10
2010,09,23,10,21,12.10
2010,09,23,10,22,12.10
2010,09,23,10,23,12.00
2010,09,23,10,24,12.00
2010,09,23,10,25,12.00
2010,09,23,10,26,12.00
2010,09,23,10,27,11.90
2010,09,23,10,28,12.00
2010,09,23,10,29,12.00
2010,09,23,10,30,12.00
2010,09,23,10,31,12.00
2010,09,23,10,32,11.90
2010,09,23,10,33,11.90
2010,09,23,10,34,11.90
2010,09,23,10,35,11.90
2010,09,23,10,36,11.90
2010,09,23,10,37,11.90
2010,09,23,10,38,12.00
2010,09,23,10,39,12.00
2010,09,23,10,40,12.00
2010,09,23,10,41,12.10
2010,09,23,10,42,12.10
2010,09,23,10,43,12.10
2010,09,23,10,44,12.20
2010,09,23,10,45,12.20
2010,09,23,10,46,12.20
2010,09,23,10,47,12.30
2010,09,23,10,48,12.30
2010,09,23,10,49,12.30
2010,09,23,10,50,12.30
2010,09,23,10,51,12.40
2010,09,23,10,52,12.40
2010,09,23,10,53,12.40
2010,09,23,10,54,12.40
2010,09,23,10,55,12.40
2010,09,23,10,56,12.50
2010,09,23,10,57,12.50
2010,09,23,10,58,12.60
2010,09,23,10,59,12.60
2010,09,23,11,00,12.60
2010,09,23,11,01,12.60
2010,09,23,11,02,12.60
2010,09,23,11,03,12.60
2010,09,23,11,04,12.60
2010,09,23,11,05,12.70
2010,09,23,11,06,12.70
2010,09,23,11,07,12.70
2010,09,23,11,08,12.70
2010,09,23,11,09,12.70
2010,09,23,11,10,12.70
2010,09,23,11,11,12.70
2010,09,23,11,12,12.70
2010,09,23,11,13,12.70
2010,09,23,11,14,12.70
2010,09,23,11,15,12.70
2010,09,23,11,16,12.60
2010,09,23,11,17,12.60
2010,09,23,11,18,12.50
2010,09,23,11,19,12.50
2010,09,23,11,20,12.40
2010,09,23,11,21,12.40
2010,09,23,11,22,12.40
2010,09,23,11,23,12.40
2010,09,23,11,24,12.30
2010,09,23,11,25,12.30
2010,09,23,11,26,12.30
2010,09,23,11,27,12.30
2010,09,23,11,28,12.30
2010,09,23,11,29,12.20
2010,09,23,11,30,12.20
2010,09,23,11,31,12.20
2010,09,23,11,32,12.20
2010,09,23,11,33,12.20
2010,09,23,11,34,12.10
2010,09,23,11,35,12.10
2010,09,23,11,36,12.10
2010,09,23,11,37,12.10
2010,09,23,11,38,12.10
2010,09,23,11,39,12.10
2010,09,23,11,40,12.10
2010,09,23,11,41,12.20
2010,09,23,11,42,12.20
2010,09,23,11,43,12.20
2010,09,23,11,44,12.20
2010,09,23,11,45,12.20
2010,09,23,11,46,12.20
2010,09,23,11,47,12.20
2010,09,23,11,48,12.20
2010,09,23,11,49,12.20
2010,09,23,11,50,12.20
2010,09,23,11,51,12.20
2010,09,23,11,52,12.30
2010,09,23,11,53,12.20
2010,09,23,11,54,12.30
2010,09,23,11,55,12.30
2010,09,23,11,56,12.30
2010,09,23,11,57,12.30
2010,09,23,11,58,12.30
2010,09,23,11,59,12.30
2010,09,23,12,00,12.30
2010,09,23,12,01,12.30
2010,09,23,12,02,12.30
2010,09,23,12,03,12.30
2010,09,23,12,04,12.30
2010,09,23,12,05,12.20
2010,09,23,12,06,12.20
2010,09,23,12,07,12.20
2010,09,23,12,08,12.20
2010,09,23,12,09,12.20
2010,09,23,12,10,12.20
2010,09,23,12,11,12.20
2010,09,23,12,12,12.20
2010,09,23,12,13,12.20
2010,09,23,12,14,12.20
2010,09,23,12,15,12.20
2010,09,23,12,16,12.20
2010,09,23,12,17,12.20
2010,09,23,12,18,12.30
2010,09,23,12,19,12.30
2010,09,23,12,20,12.30
2010,09,23,12,21,12.20
2010,09,23,12,22,12.20
2010,09,23,12,23,12.30
2010,09,23,12,24,12.30
2010,09,23,12,25,12.30
2010,09,23,12,26,12.30
2010,09,23,12,27,12.30
2010,09,23,12,28,12.30
2010,09,23,12,29,12.20
2010,09,23,12,30,12.20
2010,09,23,12,31,12.20
2010,09,23,12,32,12.20
2010,09,23,12,33,12.30
2010,09,23,12,34,12.30
2010,09,23,12,35,12.30
2010,09,23,12,36,12.30
2010,09,23,12,37,12.30
2010,09,23,12,38,12.40
2010,09,23,12,39,12.40
2010,09,23,12,40,12.50
2010,09,23,12,41,12.50
2010,09,23,12,42,12.60
2010,09,23,12,43,12.60
2010,09,23,12,44,12.70
2010,09,23,12,45,12.70
2010,09,23,12,46,12.80
2010,09,23,12,47,12.80
2010,09,23,12,48,12.80
2010,09,23,12,49,12.80
2010,09,23,12,50,12.80
2010,09,23,12,51,12.90
2010,09,23,12,52,12.90
2010,09,23,12,53,13.00
2010,09,23,12,54,13.10
2010,09,23,12,55,13.10
2010,09,23,12,56,13.20
2010,09,23,12,57,13.20
2010,09,23,12,58,13.30
2010,09,23,12,59,13.30
2010,09,23,13,00,13.30
2010,09,23,13,01,13.30
2010,09,23,13,02,13.30
2010,09,23,13,03,13.30
2010,09,23,13,04,13.30
2010,09,23,13,05,13.40
2010,09,23,13,06,13.40
2010,09,23,13,07,13.40
2010,09,23,13,08,13.40
2010,09,23,13,09,13.40
2010,09,23,13,10,13.40
2010,09,23,13,11,13.40
2010,09,23,13,12,13.40
2010,09,23,13,13,13.40
2010,09,23,13,14,13.40
2010,09,23,13,15,13.40
2010,09,23,13,16,13.50
2010,09,23,13,17,13.50
2010,09,23,13,18,13.60
2010,09,23,13,19,13.60
2010,09,23,13,20,13.60
2010,09,23,13,21,13.50
2010,09,23,13,22,13.50
2010,09,23,13,23,13.40
2010,09,23,13,24,13.40
2010,09,23,13,25,13.40
2010,09,23,13,26,13.40
2010,09,23,13,27,13.40
2010,09,23,13,28,13.40
2010,09,23,13,29,13.40
2010,09,23,13,30,13.50
2010,09,23,13,31,13.50
2010,09,23,13,32,13.60
2010,09,23,13,33,13.60
2010,09,23,13,34,13.60
2010,09,23,13,35,13.60
2010,09,23,13,36,13.60
2010,09,23,13,37,13.50
2010,09,23,13,38,13.50
2010,09,23,13,39,13.50
2010,09,23,13,40,13.50
2010,09,23,13,41,13.40
2010,09,23,13,42,13.50
2010,09,23,13,43,13.50
2010,09,23,13,44,13.50
2010,09,23,13,45,13.40
2010,09,23,13,46,13.40
2010,09,23,13,47,13.40
2010,09,23,13,48,13.40
2010,09,23,13,49,13.40
2010,09,23,13,50,13.40
2010,09,23,13,51,13.40
2010,09,23,13,52,13.40
2010,09,23,13,53,13.30
2010,09,23,13,54,13.30
2010,09,23,13,55,13.20
2010,09,23,13,56,13.20
2010,09,23,13,57,13.10
2010,09,23,13,58,13.10
2010,09,23,13,59,13.10
2010,09,23,14,00,13.00
2010,09,23,14,01,12.90
2010,09,23,14,02,12.80
2010,09,23,14,03,12.80
2010,09,23,14,04,12.80
2010,09,23,14,05,12.70
2010,09,23,14,06,12.70
2010,09,23,14,07,12.70
2010,09,23,14,08,12.60
2010,09,23,14,09,12.60
2010,09,23,14,10,12.50
2010,09,23,14,11,12.50
2010,09,23,14,12,12.40
2010,09,23,14,13,12.40
2010,09,23,14,14,12.30
2010,09,23,14,15,12.30
2010,09,23,14,16,12.30
2010,09,23,14,17,12.30
2010,09,23,14,18,12.30
2010,09,23,14,19,12.30
2010,09,23,14,20,12.30
2010,09,23,14,21,12.30
2010,09,23,14,22,12.30
2010,09,23,14,23,12.30
2010,09,23,14,24,12.30
2010,09,23,14,25,12.30
2010,09,23,14,26,12.30
2010,09,23,14,27,12.30
2010,09,23,14,28,12.30
2010,09,23,14,29,12.30
2010,09,23,14,30,12.30
2010,09,23,14,31,12.30
2010,09,23,14,32,12.30
2010,09,23,14,33,12.30
2010,09,23,14,34,12.30
2010,09,23,14,35,12.30
2010,09,23,14,36,12.30
2010,09,23,14,37,12.30
2010,09,23,14,38,12.30
2010,09,23,14,39,12.30
2010,09,23,14,40,12.30
2010,09,23,14,41,12.20
2010,09,23,14,42,12.20
2010,09,23,14,43,12.20
2010,09,23,14,44,12.20
2010,09,23,14,45,12.20
2010,09,23,14,46,12.20
2010,09,23,14,47,12.20
2010,09,23,14,48,12.20
2010,09,23,14,49,12.20
2010,09,23,14,50,12.20
2010,09,23,14,51,12.20
2010,09,23,14,52,12.20
2010,09,23,14,53,12.20
2010,09,23,14,54,12.20
2010,09,23,14,55,12.30
2010,09,23,14,56,12.30
2010,09,23,14,57,12.40
2010,09,23,14,58,12.40
2010,09,23,14,59,12.50
2010,09,23,15,00,12.50
2010,09,23,15,01,12.60
2010,09,23,15,02,12.70
2010,09,23,15,03,12.70
2010,09,23,15,04,12.80
2010,09,23,15,05,12.80
2010,09,23,15,06,12.90
2010,09,23,15,07,13.00
2010,09,23,15,08,13.10
2010,09,23,15,09,13.10
2010,09,23,15,10,13.10
2010,09,23,15,11,13.10
2010,09,23,15,12,13.00
2010,09,23,15,13,13.00
2010,09,23,15,14,13.00
2010,09,23,15,15,13.00
2010,09,23,15,16,13.00
2010,09,23,15,17,13.00
2010,09,23,15,18,13.00
2010,09,23,15,19,13.00
2010,09,23,15,20,13.00
2010,09,23,15,21,12.90
2010,09,23,15,22,12.90
2010,09,23,15,23,12.90
2010,09,23,15,24,12.90
2010,09,23,15,25,12.90
2010,09,23,15,26,12.90
2010,09,23,15,27,12.90
2010,09,23,15,28,12.90
2010,09,23,15,29,12.80
2010,09,23,15,30,12.80
2010,09,23,15,31,12.80
2010,09,23,15,32,12.80
2010,09,23,15,33,12.80
2010,09,23,15,34,12.80
2010,09,23,15,35,12.80
2010,09,23,15,36,12.80
2010,09,23,15,37,12.90
2010,09,23,15,38,12.90
2010,09,23,15,39,12.90
2010,09,23,15,40,12.90
2010,09,23,15,41,12.90
2010,09,23,15,42,12.90
2010,09,23,15,43,12.90
2010,09,23,15,44,12.90
2010,09,23,15,45,12.90
2010,09,23,15,46,12.90
2010,09,23,15,47,12.90
2010,09,23,15,48,12.90
2010,09,23,15,49,12.90
